User: anonymous   Login
Location: Plymouth
(43.7570°N, 71.6890°W)
Time: 05:31:54
(UTC-05:00)
Language:

Cosmos 2016 Rocket - Orbit

View from above orbital plane
View from above orbital plane
View from above satellite
View from above satellite

Ground track
Ground track

The orbit data is extracted from the following two-line orbital elements,

1 19922U 89028B   16037.53265442  .00000125  00000-0  11000-3 0  9991
2 19922  82.9567  75.2137 0036177 194.6473 274.0462 13.77164510348875
Epoch (UTC): 06 February 2016 12:47:01
Eccentricity: 0.0036177
inclination: 82.9567°
perigee height: 947 km
apogee height: 1000 km
right ascension of ascending node: 75.2137°
argument of perigee: 194.6473°
revolutions per day: 13.77164510
mean anomaly at epoch: 274.0462°
orbit number at epoch: 34887

The dashed part of the orbit path shows where the satellite is in the earth's shadow,  

DLR